Weather History for Marrakech, Morocco

Change the Weather History Date:

Wednesday, August 21, 2013

  Actual Average Record
Temperature  
Mean Temperature 90 °F -  
Max Temperature 105 °F 90 °F 116 °F (2012)
Min Temperature 75 °F 65 °F 64 °F (1996)
Cooling Degree Days 25    
Growing Degree Days 40 (Base 50)    
Moisture  
Dew Point 58 °F    
Average Humidity 37    
Maximum Humidity 65    
Minimum Humidity 11    
Precipitation  
Precipitation 0.00 in 0.01 in - ()
Sea Level Pressure  
Sea Level Pressure 30.04 in    
Wind  
Wind Speed 5 mph ()    
Max Wind Speed 12 mph    
Max Gust Speed -    
Visibility 4.8 miles    
Events      
Averages and records for this station are not official NWS values.
T = Trace of Precipitation, MM = Missing Value Source: Averaged Metar Reports

Daily Weather History Graph

Daily Weather History Graph

Search for Another Location

Airport:

Trip Planner

Search our weather history database for the weather conditions in past years. The results will help you decide how hot, cold, wet, or windy it might be!

Date:

Astronomy

Aug. 21, 2013 Rise Set
Actual Time 7:01 AM WEST 8:08 PM WEST
Civil Twilight 6:35 AM WEST 8:34 PM WEST
Nautical Twilight 6:05 AM WEST 9:04 PM WEST
Astronomical Twilight 5:34 AM WEST 9:35 PM WEST
Moon 8:16 PM WEST (8/21) 7:20 AM WEST (8/21)
Length of Visible Light 13h 58m
Length of Day
13h 07m
Full, 100% of the Moon is Illuminated
Aug 21
Full
Aug 28
Last Quarter
Sep 5
New
Sep 12
First Quarter
Sep 19
Full

Hourly Weather History & Observations

Time (WEST) Temp. Heat Index Dew Point Humidity Pressure Visibility Wind Dir Wind Speed Gust Speed Precip Events Conditions
12:00 AM 84.2 °F 84.4 °F 60.8 °F 45% 30.12 in - WNW 3.5 mph - N/A   Scattered Clouds
12:30 AM 84.2 °F 84.4 °F 60.8 °F 45% 30.09 in - WNW 3.5 mph - N/A   Scattered Clouds
1:00 AM 82 °F - 62 °F 40% 30.01 in 4 mi West 5.8 mph - -   Partly Cloudy
1:00 AM 82.4 °F 83.4 °F 62.6 °F 51% 30.09 in - West 5.8 mph - N/A   Scattered Clouds
1:30 AM 82.4 °F 83.4 °F 62.6 °F 51% 30.09 in 3.1 mi SW 3.5 mph - N/A   Scattered Clouds
2:00 AM 80.6 °F 81.5 °F 60.8 °F 51% 30.06 in - SW 3.5 mph - N/A   Scattered Clouds
2:30 AM 80.6 °F 81.8 °F 62.6 °F 54% 30.06 in - WSW 5.8 mph - N/A   Scattered Clouds
3:00 AM 80.6 °F 81.8 °F 62.6 °F 54% 30.06 in 3.1 mi SW 4.6 mph - N/A   Scattered Clouds
3:30 AM 80.6 °F 81.8 °F 62.6 °F 54% 30.06 in 3.1 mi SW 6.9 mph - N/A   Scattered Clouds
4:00 AM 78.8 °F - 62.6 °F 57% 30.06 in - West 4.6 mph - N/A   Scattered Clouds
4:30 AM 77.0 °F - 62.6 °F 61% 30.06 in 3.1 mi West 3.5 mph - N/A   Scattered Clouds
5:00 AM 77.0 °F - 62.6 °F 61% 30.06 in 3.7 mi West 4.6 mph - N/A   Scattered Clouds
5:30 AM 77.0 °F - 64.4 °F 65% 30.06 in 3.1 mi WSW 3.5 mph - N/A   Scattered Clouds
6:00 AM 77.0 °F - 64.4 °F 65% 30.06 in 3.1 mi WSW 3.5 mph - N/A   Scattered Clouds
6:30 AM 77.0 °F - 64.4 °F 65% 30.06 in 3.1 mi West 3.5 mph - N/A   Scattered Clouds
7:00 AM 76 °F - 64 °F 57% 30.01 in 3 mi WSW 4.6 mph - -   Mostly Cloudy
7:00 AM 77.0 °F - 64.4 °F 65% 30.06 in 3.1 mi WSW 4.6 mph - N/A   Mostly Cloudy
7:30 AM 75.2 °F - 62.6 °F 65% 30.09 in 3.7 mi WSW 4.6 mph - N/A   Mostly Cloudy
8:00 AM 75.2 °F - 62.6 °F 65% 30.09 in 3.7 mi SW 3.5 mph - N/A   Mostly Cloudy
8:30 AM 77.0 °F - 60.8 °F 57% 30.09 in 4.3 mi SW 3.5 mph - N/A   Mostly Cloudy
9:00 AM 78.8 °F - 60.8 °F 54% 30.09 in 5.0 mi WSW 3.5 mph - N/A   Mostly Cloudy
9:30 AM 82.4 °F 82.9 °F 60.8 °F 48% 30.09 in 5.0 mi Variable 2.3 mph - N/A   Mostly Cloudy
10:00 AM 86 °F - 61 °F 33% 30.00 in 4 mi WSW 2.3 mph - -   Mostly Cloudy
10:00 AM 86.0 °F 86.6 °F 62.6 °F 45% 30.09 in 4.3 mi Variable 1.2 mph - N/A   Mostly Cloudy
10:30 AM 86.0 °F 86.1 °F 60.8 °F 43% 30.09 in 4.3 mi Variable 2.3 mph - N/A   Mostly Cloudy
11:00 AM 89.6 °F 89.5 °F 60.8 °F 38% 30.09 in 3.7 mi Variable 2.3 mph - N/A   Mostly Cloudy
11:30 AM 91.4 °F 92.1 °F 62.6 °F 38% 30.09 in 3.7 mi NE 3.5 mph - N/A   Mostly Cloudy
12:00 PM 93.2 °F 93.3 °F 60.8 °F 34% 30.06 in 3.1 mi North 4.6 mph - N/A   Mostly Cloudy
12:30 PM 95.0 °F 93.7 °F 57.2 °F 28% 30.06 in 4.3 mi Variable 4.6 mph - N/A   Mostly Cloudy
1:00 PM 96 °F - 58 °F 19% 29.95 in 4 mi NNW 4.6 mph - -   Mostly Cloudy
1:00 PM 96.8 °F 96.2 °F 59.0 °F 28% 30.06 in 4.3 mi Variable 4.6 mph - N/A   Mostly Cloudy
1:30 PM 98.6 °F 98.5 °F 59.0 °F 27% 30.06 in 5.0 mi Variable 4.6 mph - N/A   Scattered Clouds
2:00 PM 100.4 °F 98.4 °F 53.6 °F 21% 30.04 in 5.6 mi NW 6.9 mph - N/A   Scattered Clouds
2:30 PM 100.4 °F 99.7 °F 57.2 °F 24% 30.04 in 5.6 mi Variable 5.8 mph - N/A   Scattered Clouds
3:00 PM 102.2 °F 101.4 °F 57.2 °F 22% 30.04 in 5.6 mi Variable 4.6 mph - N/A   Scattered Clouds
3:30 PM 100.4 °F 99.7 °F 57.2 °F 24% 30.01 in 5.6 mi WNW 11.5 mph - N/A   Scattered Clouds
4:00 PM 103 °F - 54 °F 12% 29.86 in 6 mi West 9.2 mph - -   Partly Cloudy
4:00 PM 102.2 °F 100.9 °F 55.4 °F 21% 30.01 in 6.2 mi West 9.2 mph - N/A   Scattered Clouds
4:30 PM 104.0 °F - 48.2 °F 15% 30.01 in 6.2 mi West 6.9 mph - N/A   Scattered Clouds
5:00 PM 104.0 °F - 42.8 °F 12% 29.98 in 6.2 mi NNW 6.9 mph - N/A   Scattered Clouds
5:30 PM 104.0 °F - 41.0 °F 12% 29.98 in 6.2 mi NNW 4.6 mph - N/A   Scattered Clouds
6:00 PM 104.0 °F - 48.2 °F 15% 29.98 in 6.2 mi NNW 11.5 mph - N/A   Scattered Clouds
6:30 PM 102.2 °F - 51.8 °F 18% 29.98 in 6.2 mi NNW 11.5 mph - N/A   Scattered Clouds
7:00 PM 101 °F - 51 °F 11% 29.86 in 6 mi NNW 9.2 mph - -   Scattered Clouds
7:00 PM 100.4 °F - 51.8 °F 20% 29.98 in 6.2 mi NNW 9.2 mph - N/A   Mostly Cloudy
7:30 PM 100.4 °F - 48.2 °F 17% 30.01 in 6.2 mi North 10.4 mph - N/A   Mostly Cloudy
8:00 PM 98.6 °F - 48.2 °F 18% 30.01 in 6.2 mi NNW 10.4 mph - N/A   Mostly Cloudy
8:30 PM 96.8 °F - 50.0 °F 20% 30.01 in 6.2 mi NNW 6.9 mph - N/A   Mostly Cloudy
9:00 PM 95.0 °F 92.7 °F 53.6 °F 25% 30.04 in 6.2 mi NNW 9.2 mph - N/A   Mostly Cloudy
9:30 PM 95.0 °F - 51.8 °F 23% 30.04 in 6.2 mi NNW 6.9 mph - N/A   Mostly Cloudy
10:00 PM 93 °F - 53 °F 17% 29.94 in 6 mi NNW 4.6 mph - -   Scattered Clouds
10:00 PM 93.2 °F - 51.8 °F 24% 30.06 in 6.2 mi North 4.6 mph - N/A   Mostly Cloudy
10:30 PM 91.4 °F 89.1 °F 53.6 °F 28% 30.06 in 6.2 mi NE 4.6 mph - N/A   Mostly Cloudy
11:00 PM 91.4 °F 89.4 °F 55.4 °F 29% 30.06 in 6.2 mi North 3.5 mph - N/A   Mostly Cloudy
11:30 PM 91.4 °F 89.1 °F 53.6 °F 28% 30.06 in 6.2 mi Calm Calm - N/A   Mostly Cloudy